RH
47 47 46 70 74 73 77 79 82 82 85 98 99 99 99 99 98 97 94 92 95 89 92 91 87 72 70 70 73 84 85 93 79 81 74 67 70 73 70 66 66 66 64
46 43 49 78 77 82 82 83 84 86 86 96 97 96 97 98 96 97 92 90 90 92 92 93 82 66 63 69 73 78 90 88 77 84 78 73 63 60 57 59 53 61 64
50 47 64 82 82 87 88 84 86 91 91 91 98 97 97 97 98 97 96 90 84 88 90 92 90 81 77 70 70 76 80 80 87 64 82 85 81 73 71 56 56 57 59
50 51 82 83 84 86 91 91 92 95 94 93 97 95 98 98 96 96 95 95 89 88 88 86 84 83 84 82 73 71 73 72 78 74 67 78 75 75 78 68 57 59 54
51 58 84 78 78 86 93 95 94 96 90 99 96 94 97 97 98 94 95 92 90 86 85 89 91 88 89 87 80 81 80 69 76 78 75 75 79 78 78 80 72 70 68
60 78 79 75 78 85 91 94 95 95 94 95 97 96 94 97 98 96 95 93 88 86 84 81 82 83 83 82 78 81 79 82 81 73 71 74 73 74 80 83 74 71 73
71 82 81 79 79 89 90 94 95 93 95 96 97 95 93 93 95 93 91 91 91 91 91 82 84 82 81 80 80 83 80 78 78 70 70 69 63 67 74 77 76 74 67
76 80 86 93 93 94 93 92 96 96 94 96 97 94 93 95 91 94 93 90 85 85 88 82 84 85 81 74 73 76 79 76 78 68 67 69 66 66 69 72 68 70 68
76 90 91 92 93 92 90 93 93 93 93 95 96 96 94 92 91 90 88 87 84 85 84 84 82 85 88 77 77 80 77 75 76 71 68 68 69 71 68 68 67 72 73
79 90 89 92 92 93 92 92 91 94 92 96 95 94 93 91 92 91 89 88 87 85 93 90 84 82 77 76 76 76 72 70 76 69 62 64 65 67 69 69 63 60 62
86 90 90 92 94 94 94 93 92 90 90 96 97 96 94 92 91 92 90 87 88 92 90 89 90 87 84 82 75 72 70 67 65 62 60 64 64 71 70 71 69 68 62
87 87 92 94 95 94 90 92 92 87 88 92 96 98 95 93 93 91 88 91 96 91 90 89 88 84 80 78 72 67 63 62 61 64 66 66 55 68 68 70 72 73 73
87 87 91 94 91 78 85 85 86 86 87 92 97 98 98 98 96 94 96 94 93 92 90 87 86 83 80 71 66 59 60 60 60 60 60 63 62 70 74 74 75 75 67
88 88 92 94 93 78 88 85 86 86 88 94 98 99 98 97 96 98 96 94 91 94 92 90 84 81 79 72 65 60 64 64 68 69 66 66 68 73 71 70 73 73 80
88 88 92 95 93 87 91 86 87 88 87 93 99 98 98 97 96 96 94 93 92 92 89 88 87 81 72 65 67 67 72 74 77 75 71 76 74 72 68 72 78 76 80
90 91 93 94 92 93 93 89 90 90 91 94 99 97 96 96 97 96 96 95 94 92 90 87 83 84 77 74 72 74 77 76 76 82 83 81 79 71 68 66 67 74 80
92 93 94 94 95 92 89 95 94 91 93 99 98 96 95 96 96 94 94 95 93 90 91 89 86 88 84 81 82 83 82 82 83 83 77 74 72 80 78 71 68 67 66
87 92 95 94 90 90 89 94 91 93 97 99 98 96 97 97 96 94 95 94 92 91 91 90 90 92 90 88 90 89 85 84 89 86 84 83 80 78 74 70 75 78 78
82 93 95 95 93 95 94 92 94 95 97 98 99 97 95 96 94 95 94 92 92 92 92 91 94 94 96 91 88 82 83 90 91 84 80 79 79 71 70 75 80 84 80
72 92 91 89 92 95 95 94 95 96 98 98 99 97 95 94 94 93 92 91 91 93 92 94 93 91 94 88 85 84 83 83 82 81 77 73 76 69 69 80 83 89 87
63 86 87 92 91 93 88 94 96 98 98 96 96 96 94 95 93 94 92 93 93 92 95 97 94 90 87 86 84 77 74 79 82 83 82 78 68 69 72 76 85 84 82
55 68 87 92 84 86 90 93 97 96 94 94 95 95 93 91 92 92 93 92 93 97 98 97 98 97 87 80 80 79 79 75 77 80 81 74 66 72 71 77 70 72 76
55 66 87 94 85 81 85 92 97 96 92 92 95 95 92 91 90 92 95 97 96 96 98 97 93 85 81 71 67 67 68 71 78 80 75 67 67 68 69 69 71 73 85
55 63 80 91 91 83 83 84 91 96 97 99 98 96 95 96 95 94 95 96 96 97 97 90 86 84 83 84 81 76 76 72 78 74 76 74 74 72 75 75 76 79 84
56 56 69 82 89 84 84 81 83 96 99 99 99 99 97 96 97 98 97 97 91 85 90 80 81 84 86 85 80 81 82 83 76 80 82 85 88 91 90 86 84 90 89
47 54 66 77 86 86 82 82 78 81 95 99 99 99 97 97 97 97 99 96 95 86 75 75 76 77 76 76 77 76 75 72 71 83 90 94 94 94 97 96 95 90 91
Wind_Speed
3 2 5 5 6 6 7 6 8 7 3 2 3 2 2 2 2 4 8 12 9 8 11 4 5 7 6 5 5 4 11 3 7 6 4 5 5 5 4 4 4 5 5
4 5 6 4 6 6 8 8 7 7 5 3 2 2 3 2 1 3 7 7 12 13 11 10 7 10 7 9 6 8 4 3 7 5 4 2 2 2 2 2 4 5 4
5 7 5 5 7 7 8 10 10 8 6 6 3 3 3 3 2 3 4 7 12 12 13 13 10 9 9 7 7 8 6 8 1 10 6 3 4 3 1 2 2 4 3
4 5 5 6 7 8 7 9 9 8 7 7 6 6 4 5 4 4 4 7 10 10 10 10 10 10 7 10 9 9 7 11 8 1 3 3 6 4 2 1 1 3 4
6 7 6 7 8 8 7 8 9 8 7 6 6 7 4 3 3 5 7 7 8 10 12 13 9 9 7 8 9 9 7 9 7 4 3 3 3 3 4 4 1 2 2
7 6 6 7 7 7 7 7 8 6 4 5 5 7 8 7 7 6 6 5 6 8 11 11 11 9 8 12 10 7 7 5 4 3 3 4 3 3 3 3 2 4 1
6 6 8 8 8 8 8 6 7 9 5 6 6 7 7 8 10 11 10 10 7 6 8 12 12 9 9 10 8 9 9 7 7 5 3 3 2 3 3 3 3 4 2
5 5 6 7 7 8 8 8 7 11 6 5 6 6 6 5 6 7 5 8 10 10 10 10 10 11 10 9 10 8 7 8 7 8 5 4 3 2 2 4 6 3 2
6 5 6 6 7 8 11 10 9 9 8 6 6 6 6 7 7 7 6 6 6 7 10 11 9 8 7 8 8 6 6 7 5 6 6 4 2 2 2 3 3 5 4
6 6 6 6 5 7 8 10 10 8 9 7 6 6 8 8 7 7 9 8 7 7 9 10 10 9 8 8 9 7 7 9 5 5 8 6 4 4 3 3 4 3 4
6 6 6 6 6 6 8 10 10 10 10 7 6 7 7 8 8 8 9 10 9 8 10 10 10 10 10 7 8 8 11 11 9 7 10 8 5 4 3 5 4 5 2
6 4 5 6 6 8 10 10 10 10 9 8 5 6 7 8 9 9 9 8 9 9 11 11 11 10 9 9 11 10 8 11 11 10 11 9 6 7 5 5 6 5 4
5 4 5 6 7 11 13 11 11 10 9 9 4 5 6 7 8 9 9 11 11 11 11 11 12 12 11 10 8 12 11 11 11 10 10 8 9 7 5 5 6 5 5
6 5 6 6 7 9 10 11 10 9 9 8 4 4 6 7 6 7 10 11 12 12 12 13 12 12 12 12 11 11 13 11 10 10 8 7 8 7 6 7 6 5 4
8 6 5 6 7 8 10 10 10 10 9 9 4 4 5 7 8 9 10 10 13 12 12 16 14 12 13 10 13 12 13 12 11 10 9 8 9 13 9 5 4 5 4
10 7 6 7 8 9 10 10 10 11 10 9 4 7 8 9 9 10 11 12 12 14 14 14 15 13 9 21 21 16 12 12 12 10 9 9 11 10 13 13 12 7 4
9 8 7 7 8 9 10 10 10 11 9 6 6 8 11 11 11 11 11 13 13 14 14 13 14 14 12 23 21 20 11 11 9 9 9 8 6 7 5 11 10 9 8
10 8 7 8 8 9 9 9 8 8 7 4 8 10 10 11 10 11 12 12 12 14 13 12 13 14 11 22 22 21 12 10 9 8 8 8 5 5 6 7 6 7 6
9 6 5 4 6 7 9 8 7 7 6 6 4 8 10 11 11 12 12 11 12 11 11 12 14 13 12 22 21 15 12 10 8 7 7 6 5 8 11 7 8 6 4
8 6 5 4 5 7 7 6 7 6 5 4 5 5 8 10 12 13 12 10 11 12 10 11 11 17 13 19 20 15 9 10 8 7 7 11 7 10 10 6 6 5 2
12 7 5 4 5 6 6 5 6 7 6 4 6 8 8 9 11 13 12 12 12 12 12 12 10 11 13 13 18 17 8 8 8 6 4 3 10 10 11 9 5 4 5
11 8 5 4 3 4 4 4 5 6 5 5 6 8 9 8 9 13 12 12 13 13 11 11 8 7 9 14 16 16 14 14 8 7 4 5 9 11 9 6 10 10 7
11 7 5 5 2 2 2 2 2 4 5 6 7 8 9 9 9 12 13 11 11 10 9 8 8 7 4 6 17 17 17 15 7 6 8 11 11 11 7 10 9 7 3
8 5 6 5 4 1 1 1 3 3 4 6 7 7 9 10 9 7 8 10 10 9 9 8 8 7 6 4 4 6 8 14 9 11 7 8 8 8 6 6 4 3 3
7 7 6 6 5 4 3 2 4 5 5 5 5 6 6 8 9 7 6 8 7 10 10 8 9 10 8 5 11 10 7 6 9 8 4 3 3 2 2 3 3 3 3
10 9 8 6 6 6 5 4 4 6 6 6 5 5 6 6 7 9 9 13 15 14 12 13 9 6 11 18 17 16 16 16 16 3 3 2 2 3 2 2 2 2 3
Wind_Direction
262 297 4 11 353 357 336 320 310 306 310 233 174 177 194 177 159 167 184 168 163 179 151 147 178 143 156 133 125 110 131 86 128 101 67 50 47 51 65 105 112 108 109
296 339 346 1 355 320 314 312 297 291 282 248 218 138 149 189 158 161 162 192 168 171 159 154 183 173 143 134 145 150 124 96 169 136 111 114 38 42 81 76 129 139 135
327 314 333 337 331 314 306 307 298 284 268 242 120 102 119 93 102 149 166 177 174 177 173 165 190 191 148 147 162 161 164 159 308 159 133 142 192 121 27 155 158 155 144
325 314 330 323 308 291 298 291 287 282 268 225 183 171 196 174 171 171 177 170 177 173 165 172 178 171 160 158 176 171 172 157 161 72 50 80 138 159 149 347 166 153 163
308 292 297 292 295 293 283 284 293 297 281 214 197 195 191 133 130 149 165 170 174 175 168 161 167 169 160 157 173 187 160 176 157 158 142 84 58 80 136 163 160 74 131
296 288 292 293 291 289 281 309 311 309 296 212 209 208 192 153 148 159 165 174 183 177 172 170 170 169 171 168 166 171 157 130 124 137 130 137 159 165 143 114 129 147 142
294 289 308 313 310 312 320 318 321 318 274 228 192 200 188 172 174 176 176 169 174 184 188 172 169 175 174 174 164 168 152 149 150 150 135 108 116 132 127 116 137 136 138
297 295 302 307 315 325 315 322 326 317 276 227 212 201 194 188 184 183 198 185 179 180 183 185 175 167 171 164 170 169 161 159 135 131 146 122 146 168 166 143 144 111 122
294 300 313 321 327 322 319 322 316 317 301 227 212 195 190 190 189 180 183 191 182 171 172 178 171 153 157 159 149 141 129 124 121 128 120 109 91 86 99 102 121 135 140
297 318 322 315 307 311 313 315 310 297 300 247 207 197 191 195 187 177 181 182 176 165 155 149 145 135 142 145 133 124 117 120 109 115 113 97 80 71 77 93 86 80 120
280 300 308 308 311 313 318 309 310 312 312 255 219 204 196 194 186 188 188 189 178 163 155 148 141 135 126 121 118 128 131 124 123 121 113 99 95 84 75 74 68 64 74
262 288 310 319 327 322 324 310 307 307 304 290 223 208 192 188 188 190 187 164 142 147 143 138 127 124 118 122 126 127 125 129 125 114 104 108 102 76 59 72 79 76 47
291 315 321 326 313 332 324 317 314 310 306 300 221 198 184 184 191 182 162 144 136 130 124 122 122 117 117 115 124 123 117 117 114 113 107 114 110 103 95 87 84 65 61
310 305 311 311 308 331 316 313 312 314 310 296 211 190 181 182 171 139 142 138 133 128 126 117 105 112 119 115 113 118 108 101 96 97 104 104 98 116 117 89 94 95 84
325 317 314 323 306 324 318 318 319 320 319 304 202 178 108 106 118 120 120 123 121 113 115 111 113 111 103 119 123 113 110 108 98 93 94 89 109 106 106 113 111 105 94
335 345 338 324 320 335 321 325 324 319 315 297 176 123 115 109 105 112 117 112 110 115 107 103 111 118 111 124 120 118 114 110 109 106 105 110 98 116 114 109 105 114 121
331 336 329 326 328 328 324 324 324 315 316 286 130 119 120 117 114 110 105 116 115 110 114 121 125 112 127 129 123 117 109 104 109 117 108 102 98 87 101 120 95 99 113
326 328 325 328 331 330 325 322 326 322 335 1 123 129 130 122 126 116 120 115 115 123 127 126 121 118 127 131 126 118 120 111 96 102 101 107 114 144 118 103 100 78 72
309 307 317 314 327 329 324 329 338 339 2 22 84 128 130 127 126 120 117 121 119 119 126 126 122 122 123 132 132 123 92 104 113 118 119 122 121 139 141 119 104 95 58
306 305 309 317 338 328 327 344 352 355 7 35 75 97 124 130 128 120 123 120 118 119 119 115 115 126 126 131 120 110 123 127 123 126 129 132 134 132 129 114 124 126 122
308 301 312 343 323 333 337 3 3 3 352 43 85 101 105 111 120 121 122 119 119 112 112 110 111 116 113 124 137 140 134 137 133 130 125 123 125 122 115 115 123 127 113
322 310 301 325 335 341 347 1 22 354 13 53 79 95 110 115 121 121 119 120 120 116 114 111 103 107 123 143 147 147 141 143 136 136 112 113 131 123 121 122 114 111 105
306 296 281 295 299 334 345 333 44 27 33 73 84 94 103 110 120 127 125 122 122 121 119 118 118 121 120 141 152 148 145 139 107 104 133 143 141 129 118 111 107 112 113
290 295 289 266 267 220 294 240 123 100 77 76 86 103 112 111 110 114 126 127 128 127 123 125 133 137 132 125 125 131 126 123 119 143 130 125 124 122 110 91 97 101 100
282 291 282 259 240 196 186 201 154 132 114 97 92 92 104 110 105 89 112 123 117 135 139 150 151 149 147 150 134 131 125 128 138 117 87 91 86 102 104 86 80 81 90
294 287 277 256 228 188 180 173 176 150 141 121 108 106 109 115 115 113 101 98 116 132 139 142 141 133 138 142 142 143 144 146 143 113 119 109 118 123 115 126 137 130 133